Location: Tamke-Allan Observatory
(35.8325°N, 84.6178°W)
Time: 23:38:22
(UTC-04:00)

Tiangong 2 - Visible Passes

Search period start: 18 July 2018 00:00
Search period end: 28 July 2018 00:00
Orbit: 386 x 394 km, 42.8° (Epoch: 18 July)

Date Brightness Start Highest point End Pass type
(mag) Time Alt. Az. Time Alt. Az. Time Alt. Az.
18 Jul 3.4 21:55:40 10° NW 21:58:15 22° N 22:00:49 10° NE visible
18 Jul 3.4 23:32:36 10° NW 23:34:18 25° NNW 23:34:18 25° NNW visible
19 Jul 2.8 22:34:58 10° NW 22:37:48 29° NNE 22:39:00 22° NE visible
20 Jul 3.1 21:37:16 10° NW 21:39:56 24° N 21:42:37 10° ENE visible
20 Jul 2.7 23:13:59 10° WNW 23:16:01 35° NW 23:16:01 35° NW visible
21 Jul 2.0 22:16:20 10° NW 22:19:23 42° NNE 22:20:44 26° ENE visible
22 Jul 2.6 21:18:41 10° NW 21:21:33 30° NNE 21:24:26 10° ENE visible
22 Jul 2.1 22:55:26 10° WNW 22:57:46 42° W 22:57:46 42° W visible
23 Jul 1.1 21:57:41 10° WNW 22:00:52 75° NNE 22:02:33 25° ESE visible
24 Jul 2.5 22:37:05 10° W 22:39:40 28° SW 22:39:40 28° SW visible
25 Jul 1.5 21:39:07 10° WNW 21:42:15 54° SSW 21:44:31 17° SE visible
26 Jul 3.5 22:19:19 10° WSW 22:21:04 14° SW 22:21:45 13° SSW visible
27 Jul 2.8 21:20:47 10° W 21:23:30 25° SW 21:26:11 10° SSE visible
